Home   Weather   Repentigny   Past weeks

Flag for Canada Past Weather in Repentigny, Quebec, Canada — Yesterday and Last 2 Weeks

Now
48 °F

Cool.


Feels Like: 44 °F
Forecast: 53 / 67 °F
Wind: 8 mph from Northeast

Location: L'Assomption Airport

Current Time: Apr 28, 2017 at 12:17:20 am

Latest Report: Apr 27, 2017 at 11:00 pm


Visibility: N/A

Pressure: 29.78 "Hg

Humidity: 86%

Dew Point: 44 °F

Location of RepentignyLocation

Past Weather in Repentigny — Graph

°F

Repentigny Temperature Yesterday

Maximum temperature yesterday: 68 °F (at 3:00 pm)
Minimum temperature yesterday: 47 °F (at 6:00 am)
Average temperature yesterday: 57 °F

High & Low Weather Summary for the Past Weeks

 TemperatureHumidityPressure
High68 °F (Apr 27, 3:00 pm)100% (Apr 17, 3:00 am)30.53 "Hg (Apr 17, 3:00 am)
Low27 °F (Apr 14, 6:00 am)23% (Apr 14, 4:00 pm)29.64 "Hg (Apr 16, 5:00 pm)
Average47 °F74%30.09 "Hg
* Reported Apr 12 11:00 pm — Apr 27 11:00 pm, Repentigny, Weather by CustomWeather, © 2017

Note: Actual official high and low records may vary slightly from our data, if they occured in-between our weather recording intervals... More about our weather records

Advertising

Repentigny Weather History for the Previous 24 Hours

Scroll right to see more
 ConditionsComfort  
Time TempWeatherWind HumidityBarometerVisibility
11:00 pm
Thu, Apr 27
48 °FCool.8 mph86%29.78 "HgN/A
10:00 pm52 °FCool.6 mph83%29.78 "HgN/A
9:00 pm55 °FCool.6 mph78%29.77 "HgN/A
8:00 pm59 °FCool.7 mph74%29.77 "HgN/A
7:00 pm62 °FMild.7 mph67%29.78 "HgN/A
6:00 pm67 °FMild.7 mph64%29.78 "HgN/A
5:00 pm68 °FMild.8 mph65%29.80 "HgN/A
4:00 pm68 °FMild.9 mph68%29.81 "HgN/A
3:00 pm68 °FMild.8 mph66%29.84 "HgN/A
2:00 pm67 °FMild.7 mph70%29.86 "HgN/A
1:00 pm66 °FMild.7 mph74%29.86 "HgN/A
12:00 pm60 °FCool.7 mph81%29.88 "HgN/A
11:00 am59 °FCool.6 mph85%29.89 "HgN/A
10:00 am54 °FCool.6 mph92%29.90 "HgN/A
9:00 am50 °FCool.7 mph100%29.90 "HgN/A
8:00 am49 °FCool.6 mph100%29.90 "HgN/A
7:00 am49 °FCool.5 mph99%29.89 "HgN/A
6:00 am47 °FCool.5 mph100%29.88 "HgN/A
5:00 am50 °FCool.5 mph100%29.87 "HgN/A
4:00 am51 °FCool.5 mph100%29.86 "HgN/A
3:00 am51 °FCool.3 mph98%29.86 "HgN/A
2:00 am52 °FCool.5 mph96%29.85 "HgN/A
1:00 am53 °FCool.5 mph95%29.87 "HgN/A
12:00 am53 °FCool.5 mph94%29.86 "HgN/A
Weather by CustomWeather, © 2017

See weather overviewHow to use our weather pages